TimeEST,TemperatureF,Dew PointF,Humidity,Sea Level PressureIn,VisibilityMPH,Wind Direction,Wind SpeedMPH,Gust SpeedMPH,PrecipitationIn,Events,Conditions,WindDirDegrees,DateUTC
12:54 AM,30.0,21.9,72,29.87,8.0,West,12.7,26.5,0.00,Snow,Light Snow,260,2012-11-24 05:54:00
1:54 AM,30.0,21.9,72,29.88,10.0,WSW,11.5,21.9,0.00,Snow,Light Snow,240,2012-11-24 06:54:00
2:54 AM,28.9,21.9,75,29.88,9.0,WSW,9.2,18.4,0.00,Snow,Light Snow,250,2012-11-24 07:54:00
3:54 AM,28.9,23.0,78,29.88,4.0,WSW,11.5,18.4,0.00,Snow,Light Snow,250,2012-11-24 08:54:00
4:54 AM,28.9,23.0,78,29.88,10.0,WSW,9.2,-,0.00,,Overcast,240,2012-11-24 09:54:00
5:54 AM,28.9,21.9,75,29.89,6.0,WSW,10.4,20.7,0.00,Snow,Light Snow,240,2012-11-24 10:54:00
6:54 AM,28.9,23.0,78,29.91,10.0,WSW,11.5,18.4,0.00,,Overcast,250,2012-11-24 11:54:00
7:54 AM,30.0,21.9,72,29.92,10.0,West,12.7,23.0,N/A,,Overcast,260,2012-11-24 12:54:00
8:54 AM,30.0,21.9,72,29.93,9.0,West,15.0,20.7,0.00,Snow,Light Snow,260,2012-11-24 13:54:00
9:54 AM,30.9,21.9,69,29.94,10.0,West,15.0,23.0,0.00,,Overcast,270,2012-11-24 14:54:00
10:54 AM,30.9,21.9,69,29.94,7.0,West,12.7,21.9,0.00,Snow,Light Snow,270,2012-11-24 15:54:00
11:05 AM,30.2,23.0,75,29.89,6.0,West,16.1,25.3,0.00,Snow,Light Snow,280,2012-11-24 16:05:00
11:13 AM,30.2,23.0,75,29.89,1.8,West,13.8,26.5,0.00,Snow,Light Snow,280,2012-11-24 16:13:00
11:20 AM,30.2,23.0,75,29.89,0.8,West,11.5,26.5,0.00,Snow,Light Snow,280,2012-11-24 16:20:00
11:30 AM,30.2,23.0,75,29.89,2.0,West,13.8,24.2,0.00,Snow,Light Snow,280,2012-11-24 16:30:00
11:38 AM,30.2,23.0,75,29.89,9.0,West,10.4,17.3,0.00,,Overcast,270,2012-11-24 16:38:00
11:54 AM,32.0,21.9,66,29.93,9.0,West,12.7,24.2,0.00,,Overcast,260,2012-11-24 16:54:00
12:52 PM,32.0,21.2,64,29.87,9.0,West,10.4,26.5,0.00,Snow,Light Snow,270,2012-11-24 17:52:00
12:54 PM,32.0,21.9,66,29.92,9.0,West,10.4,26.5,0.00,Snow,Light Snow,280,2012-11-24 17:54:00
1:02 PM,30.2,21.2,69,29.88,4.0,West,16.1,23.0,0.00,Snow,Light Snow,270,2012-11-24 18:02:00
1:54 PM,32.0,21.9,66,29.92,7.0,West,17.3,28.8,0.00,Snow,Light Snow,280,2012-11-24 18:54:00
2:54 PM,30.9,21.0,67,29.94,9.0,WNW,21.9,29.9,0.00,Snow,Light Snow,290,2012-11-24 19:54:00
3:54 PM,30.0,21.0,69,29.95,10.0,West,10.4,19.6,0.00,,Overcast,280,2012-11-24 20:54:00
4:54 PM,30.0,21.0,69,29.97,10.0,West,11.5,21.9,0.00,,Overcast,270,2012-11-24 21:54:00
5:54 PM,28.9,21.0,72,29.99,9.0,West,10.4,18.4,0.00,Snow,Light Snow,270,2012-11-24 22:54:00
6:06 PM,28.4,21.2,74,29.93,10.0,West,8.1,18.4,0.00,,Overcast,270,2012-11-24 23:06:00
6:54 PM,28.9,21.0,72,29.99,10.0,West,10.4,18.4,0.00,Snow,Light Snow,270,2012-11-24 23:54:00
7:54 PM,28.0,21.9,78,30.00,8.0,West,10.4,18.4,0.00,Snow,Light Snow,260,2012-11-25 00:54:00
8:54 PM,28.9,21.0,72,30.00,9.0,West,8.1,-,0.00,Snow,Light Snow,270,2012-11-25 01:54:00
9:54 PM,28.9,21.0,72,30.01,10.0,WSW,9.2,-,0.00,,Overcast,250,2012-11-25 02:54:00
10:54 PM,28.0,21.0,75,30.00,10.0,West,8.1,17.3,0.00,,Overcast,270,2012-11-25 03:54:00
11:12 PM,28.4,21.2,74,29.95,10.0,West,13.8,17.3,N/A,,Overcast,280,2012-11-25 04:12:00
11:28 PM,28.4,21.2,74,29.94,10.0,West,6.9,-,N/A,,Overcast,270,2012-11-25 04:28:00
11:54 PM,28.0,21.0,75,29.99,10.0,West,12.7,18.4,N/A,,Overcast,270,2012-11-25 04:54:00